Regional Weather Roundup
Issued by NWS Albany, NY

Home | Current Version | Previous Version | Graphics & Text | Print | Product List | Glossary Off
Versions: 1 2 3 4 5 6 7 8 9 10 11 12 13 14 15 16 17 18 19 20 21 22 23 24 25 26 27 28 29 30 31 32 33 34 35 36 37 38 39 40 41 42 43 44 45 46 47 48 49 50

975
ASUS41 KALY 061810
RWRALY

NEW YORK STATE HOURLY WEATHER ROUNDUP
NATIONAL WEATHER SERVICE ALBANY NY
100 PM EST SAT FEB 06 2016

NOTE: "FAIR" INDICATES FEW OR NO CLOUDS BELOW 12,000 FEET WITH NO
SIGNIFICANT WEATHER AND/OR NO OBSTRUCTIONS TO VISIBILITY.

NYZ032-033-038>043-046>054-057>066-NYZ062>081-061900-
EAST


CITY           SKY/WX    TMP DP  RH WIND       PRES   REMARKS
ALBANY         PTSUNNY   39  18  42 S10       30.23F WCI  32
GLENS FALLS    CLOUDY    37  19  48 S14G22    30.20F WCI  28
POUGHKEEPSIE   SUNNY     41  16  36 S5        30.30F
NEWBURGH       PTSUNNY   39  18  41 SW12      30.30F WCI  32
MONTGOMERY     SUNNY     40  18  41 SW13      30.28F WCI  32
WHITE PLAINS   MOSUNNY   37  18  46 SW8       30.31F WCI  31
ISLIP          CLOUDY    36  22  56 SW12      30.35F WCI  28
NEW YORK CITY  CLOUDY    39  20  46 SW9       30.35F WCI  33
CENTRAL PARK   MOSUNNY   39  19  44 VRB6      30.37F WCI  35
$$

NYZ005>009-017-018-044>046-055-056-061900-
CENTRAL


CITY           SKY/WX    TMP DP  RH WIND       PRES   REMARKS
FULTON         CLOUDY    40  23  50 W16G25    30.18F WCI  31
SYRACUSE       PTSUNNY   38  20  48 SW17G28   30.18F WCI  28
ROME           CLOUDY    37  19  48 SW14G23   30.20F WCI  28
ELMIRA         PTSUNNY   40  20  44 SW13G22   30.18F WCI  32
BINGHAMTON     PTSUNNY   36  18  48 SW15G23   30.16F WCI  27
MONTICELLO     PTSUNNY   37  18  44 S9        30.24F WCI  31
$$

NYZ026>034-041>043-061900-
NORTH


CITY           SKY/WX    TMP DP  RH WIND       PRES   REMARKS
WATERTOWN      LGT SNOW  33  29  85 SW18G25   30.15F VSB 1   WCI  22
FORT DRUM      NOT AVBL
MASSENA        LGT SNOW  33  28  81 SW10      30.12F WCI  25
SARANAC LAKE   LGT SNOW  29  23  78 SW13      30.05F WCI  19
PLATTSBURGH    CLOUDY    35  23  61 S6        30.14F WCI  30
$$

NYZ001>004-010>016-019>021-061900-
WEST


CITY           SKY/WX    TMP DP  RH WIND       PRES   REMARKS
NIAGARA FALLS  PTSUNNY   36  25  64 SW20      30.19F WCI  25
BUFFALO        PTSUNNY   35  24  64 SW22G31   30.19F WCI  23
DUNKIRK        MOSUNNY   33  24  69 SW20G26   30.23F WCI  21
JAMESTOWN      SUNNY     32  18  55 W13       30.17F WCI  22
WELLSVILLE     MOSUNNY   35  18  49 W14G23    30.15F WCI  26
ROCHESTER      LGT SNOW  33  27  78 SW13      30.20F WCI  24
PENN YAN       MOSUNNY   37  19  48 W15G24    30.18F WCI  28
$$

             KEY
       WCI = WIND CHILL INDEX
       VSB = VISIBILITY
       HX  = HEAT INDEX
$$




USA.gov is the U.S. government's official web portal to all federal, state and local government web resources and services.